Overview Statistics Trail Chart Weather Telemetry Raw packets
 

This is the latest recevied weather packets stored in our database for station/object K4PAD. If no packets are shown the sender has not sent any weather packets the latest 10 day(s).

<< 1 2 3 4 5 >>
Time Temp. Humidity Pressure Rain* Wind** Luminosity Snow
1788610439 25° C 99% 1015.7 hPa 0 mm - 73 W/m² -
1788610138 25° C 99% 1015.6 hPa 0 mm - 53 W/m² -
1788609837 24.44° C 99% 1015.8 hPa 0 mm - 55 W/m² -
1788609533 24.44° C 99% 1015.5 hPa 0 mm - 48 W/m² -
1788609232 24.44° C 99% 1015.5 hPa 0 mm - 38 W/m² -
1788608927 24.44° C 99% 1015.3 hPa 0 mm - 34 W/m² -
1788608626 24.44° C 99% 1015.3 hPa 0 mm - 30 W/m² -
1788608319 24.44° C 99% 1015.3 hPa 0 mm - 25 W/m² -
1788608015 24.44° C 99% 1015.3 hPa 0 mm - 21 W/m² -
1788607711 23.89° C 99% 1015.3 hPa 0 mm - 16 W/m² -
1788607405 23.89° C 99% 1015 hPa 0 mm - 12 W/m² -
1788607101 23.89° C 99% 1015 hPa 0 mm - 8 W/m² -
1788606795 23.89° C 99% 1015.3 hPa 0 mm - 5 W/m² -
1788606494 23.89° C 99% 1015.1 hPa 0 mm - 3 W/m² -
1788606189 23.89° C 99% 1015 hPa 0 mm - 1 W/m² -
1788605884 23.89° C 99% 1014.9 hPa 0 mm - 1 W/m² -
1788605583 23.89° C 99% 1014.8 hPa 0 mm - 0 W/m² -
1788605277 23.89° C 99% 1014.8 hPa 0 mm - 0 W/m² -
1788604974 23.89° C 99% 1014.8 hPa 0 mm - 0 W/m² -
1788604673 23.89° C 99% 1014.8 hPa 0 mm - 0 W/m² -
1788604382 23.89° C 99% 1014.6 hPa 0 mm - 0 W/m² -
1788604065 23.89° C 98% 1014.7 hPa 0 mm - 0 W/m² -
1788603761 23.89° C 98% 1014.9 hPa 0 mm - 0 W/m² -
1788603460 23.89° C 98% 1014.8 hPa 0 mm - 0 W/m² -
1788603158 23.89° C 98% 1014.8 hPa 0 mm - 0 W/m² -

* Rain latest hour (hover to see other rain measurements)
** Current wind speed in m/s (hover to see current wind gust speed)